Location: Centerville
(32.8776°N, 96.6203°W)
Time: 10:58:09
(UTC+00:00)

Cosmos 2237 - Pass Details

Date: 24 October 2021
Orbit: 845 x 856 km, 70.8° (Epoch: 08 December)

Event Time Altitude Azimuth Distance (km) Brightness Sun altitude
Exits shadow 09:22:39 - 16° (NNE) 2,765 7.1 -41.4°
Reaches altitude 10° 09:24:07 10° 28° (NNE) 2,490 7.0 -41.1°
Maximum altitude 09:26:37 13° 55° (NE) 2,283 7.0 -40.6°
Drops below altitude 10° 09:29:08 10° 81° (E) 2,483 7.3 -40.1°
Sets 09:33:08 0° 109° (ESE) 3,413 8.0 -39.3°
